This is the latest recevied weather packets stored in our database for station/object W5DNT. If no packets are shown the sender has not sent any weather packets the latest 10 day(s).
| Time | Temp. | Humidity | Pressure | Rain* | Wind** | Luminosity | Snow |
|---|---|---|---|---|---|---|---|
| 1788404441 | 28.33° C | 65% | 1011.3 hPa | 0 mm | - | - | - |
| 1788403540 | 27.78° C | 64% | 1011.1 hPa | 0 mm | - | - | - |
| 1788402639 | 28.33° C | 65% | 1010.9 hPa | 0 mm | - | - | - |
| 1788401739 | 28.33° C | 62% | 1010.6 hPa | 0 mm | - | - | - |
| 1788400846 | 28.89° C | 62% | 1010.4 hPa | 0 mm | - | - | - |
| 1788399938 | 28.89° C | 61% | 1010.1 hPa | 0 mm | - | - | - |
| 1788399047 | 29.44° C | 60% | 1010.1 hPa | 0 mm | - | - | - |
| 1788398137 | 29.44° C | 58% | 1010.1 hPa | 0 mm | - | - | - |
| 1788397239 | 30° C | 59% | 1010 hPa | 0 mm | - | - | - |
| 1788396336 | 30.56° C | 62% | 1010 hPa | 0 mm | - | - | - |
| 1788395435 | 32.22° C | 56% | 1009.9 hPa | 0 mm | - | - | - |
| 1788394535 | 32.78° C | 51% | 1009.8 hPa | 0 mm | - | - | - |
| 1788393641 | 32.78° C | 50% | 1009.8 hPa | 0 mm | - | - | - |
| 1788392735 | 33.33° C | 48% | 1009.7 hPa | 0 mm | - | - | - |
| 1788391834 | 33.89° C | 51% | 1009.8 hPa | 0 mm | - | - | - |
| 1788390933 | 34.44° C | 46% | 1009.6 hPa | 0 mm | - | - | - |
| 1788390037 | 35° C | 45% | 1009.4 hPa | 0 mm | - | - | - |
| 1788389137 | 36.11° C | 43% | 1009.6 hPa | 0 mm | - | - | - |
| 1788388250 | 36.67° C | 40% | 1009.6 hPa | 0 mm | - | - | - |
| 1788387333 | 36.11° C | 41% | 1009.5 hPa | 0 mm | - | - | - |
| 1788386429 | 36.67° C | 40% | 1009.6 hPa | 0 mm | - | - | - |
| 1788385529 | 36.67° C | 39% | 1009.7 hPa | 0 mm | - | - | - |
| 1788384628 | 37.22° C | 39% | 1009.7 hPa | 0 mm | - | - | - |
| 1788383727 | 37.78° C | 38% | 1009.8 hPa | 0 mm | - | - | - |
| 1788382826 | 38.33° C | 38% | 1009.8 hPa | 0 mm | - | - | - |
* Rain latest hour (hover to see other rain measurements)
** Current wind speed in m/s (hover to see current wind gust speed)